Total_Precipitation_Accumulation
1.54 1.57 1.59 1.46 1.35 1.30 1.34 1.54 1.85 1.62 1.04 0.79 0.81 0.86 0.94 1.06 1.25 1.15 1.07 1.16 1.23 1.32 1.43 1.51 1.60 1.71 1.98 2.58 3.54 4.87 5.49 4.79 3.90 3.66 3.69 3.89 4.20 4.61
1.41 1.50 1.56 1.49 1.41 1.34 1.38 1.41 1.53 1.73 1.43 0.86 0.79 0.83 0.95 1.01 1.14 1.04 1.06 1.24 1.24 1.28 1.35 1.42 1.51 1.58 1.71 1.98 2.51 3.35 4.53 5.18 4.78 4.15 3.92 4.09 4.23 4.42
1.33 1.37 1.40 1.42 1.45 1.37 1.36 1.37 1.35 1.42 1.43 0.92 0.76 0.79 0.97 1.06 1.05 0.99 1.02 1.08 1.11 1.25 1.28 1.33 1.41 1.51 1.69 1.88 2.16 2.59 3.24 4.20 4.86 4.73 4.35 4.20 4.18 4.19
1.28 1.27 1.27 1.32 1.39 1.33 1.29 1.25 1.21 1.17 1.23 1.06 0.82 0.80 0.87 0.95 1.06 1.14 1.12 1.10 1.05 1.17 1.21 1.31 1.45 1.50 1.61 1.80 2.05 2.33 2.67 3.17 3.86 4.40 4.46 4.23 4.05 4.07
1.26 1.26 1.22 1.29 1.36 1.30 1.29 1.22 1.13 1.07 1.07 1.09 0.92 0.82 0.86 0.90 1.07 1.24 1.25 1.25 1.18 1.21 1.24 1.31 1.42 1.52 1.59 1.72 1.95 2.17 2.33 2.48 2.85 3.60 4.15 4.09 3.96 3.88
1.19 1.16 1.18 1.30 1.34 1.35 1.39 1.29 1.22 1.23 1.23 1.26 1.13 0.99 0.99 1.00 1.19 1.43 1.53 1.48 1.42 1.27 1.31 1.36 1.47 1.59 1.61 1.61 1.68 1.79 1.93 2.19 2.50 2.91 3.52 3.88 3.78 3.72
1.15 1.13 1.18 1.33 1.39 1.56 1.69 1.57 1.54 1.64 1.60 1.59 1.47 1.35 1.27 1.30 1.38 1.43 1.60 1.62 1.60 1.44 1.34 1.28 1.31 1.33 1.42 1.52 1.59 1.65 1.75 1.92 2.18 2.48 2.86 3.32 3.62 3.69
1.19 1.13 1.13 1.26 1.30 1.43 1.62 1.71 1.77 1.90 1.97 1.94 1.83 1.67 1.41 1.33 1.37 1.51 1.61 1.78 1.85 1.54 1.45 1.41 1.35 1.44 1.39 1.40 1.61 1.64 1.70 1.85 2.02 2.23 2.49 2.77 3.15 3.56
1.17 1.15 1.14 1.20 1.27 1.24 1.37 1.44 1.48 1.64 1.87 1.98 2.02 1.62 1.40 1.34 1.57 1.77 1.72 1.80 1.77 1.66 1.78 1.75 1.45 1.48 1.42 1.53 1.74 1.65 1.65 1.74 1.86 1.99 2.19 2.40 2.65 3.00
1.14 1.12 1.12 1.15 1.25 1.46 1.42 1.38 1.29 1.31 1.51 1.71 1.96 1.78 1.59 1.61 1.95 2.27 2.35 2.22 1.82 1.61 1.79 2.01 1.56 1.46 1.51 1.61 1.77 1.69 1.60 1.61 1.71 1.84 1.97 2.12 2.30 2.56
1.12 1.10 1.12 1.13 1.39 1.67 1.57 1.42 1.26 1.17 1.27 1.59 1.89 2.02 2.07 2.18 2.41 2.73 2.89 2.71 2.24 1.71 1.69 1.96 1.76 1.57 1.72 1.91 1.96 1.86 1.62 1.57 1.63 1.74 1.79 1.83 2.01 2.29
1.16 1.12 1.25 1.34 1.54 1.68 1.53 1.49 1.57 1.36 1.20 1.23 1.32 1.43 1.51 1.67 2.07 2.36 2.67 2.75 2.39 2.17 1.81 1.91 2.02 2.01 2.28 2.15 2.00 1.80 1.61 1.57 1.60 1.66 1.68 1.67 1.79 1.82
1.21 1.17 1.15 1.40 1.51 1.59 1.62 1.57 1.80 1.69 1.41 1.40 1.36 1.30 1.28 1.39 1.60 1.90 2.32 2.66 2.68 2.37 1.95 2.22 2.52 2.32 2.40 2.25 2.11 2.01 1.68 1.47 1.46 1.58 1.69 1.71 1.73 1.70
1.14 1.04 1.10 1.34 1.43 1.54 1.54 1.63 1.76 1.68 1.47 1.41 1.33 1.27 1.28 1.33 1.42 1.57 1.90 2.17 2.30 2.18 1.88 2.21 2.81 2.57 2.44 2.15 2.07 2.16 1.94 1.64 1.47 1.46 1.55 1.81 1.77 1.70
1.13 1.22 1.30 1.40 1.41 1.34 1.41 1.52 1.50 1.43 1.50 1.50 1.35 1.25 1.26 1.38 1.45 1.49 1.63 1.90 2.06 2.03 1.96 2.04 2.45 2.55 2.56 2.35 1.99 2.01 2.10 1.99 1.69 1.60 1.58 1.59 1.51 1.45
1.32 1.37 1.44 1.42 1.31 1.22 1.26 1.28 1.23 1.33 1.48 1.47 1.34 1.20 1.18 1.30 1.46 1.56 1.66 1.80 2.01 2.03 1.98 2.05 2.31 2.70 2.69 2.21 2.02 1.97 1.89 2.08 1.96 1.77 1.63 1.57 1.43 1.25
1.49 1.56 1.48 1.39 1.35 1.23 1.12 1.07 1.12 1.28 1.40 1.31 1.28 1.25 1.22 1.26 1.33 1.45 1.67 1.82 1.96 1.98 2.03 2.18 2.33 2.54 2.65 2.56 2.40 2.03 1.77 1.72 1.80 1.80 1.74 1.74 1.66 1.41
1.68 1.59 1.37 1.22 1.17 1.13 1.11 1.09 1.04 1.08 1.14 1.21 1.26 1.26 1.26 1.28 1.31 1.32 1.49 1.74 1.89 1.89 1.95 2.09 2.27 2.50 2.69 2.80 2.64 2.22 1.86 1.71 1.77 1.85 1.82 1.89 1.93 1.68
1.56 1.34 1.15 1.08 1.05 1.03 1.01 1.01 0.98 0.92 0.96 1.07 1.12 1.17 1.22 1.27 1.30 1.31 1.37 1.53 1.71 1.83 1.94 2.05 2.21 2.45 2.62 2.71 2.78 2.46 2.16 1.88 1.83 2.02 2.04 1.96 1.95 1.80
1.29 1.19 1.10 1.02 1.00 1.02 1.03 1.02 0.99 0.95 0.97 1.00 1.03 1.05 1.14 1.25 1.28 1.26 1.29 1.43 1.59 1.71 1.81 1.93 2.15 2.44 2.67 2.58 2.63 2.63 2.54 2.24 2.01 2.13 2.19 2.08 1.99 1.95
1.14 1.12 1.08 1.05 1.04 1.04 1.06 1.06 1.05 1.02 0.98 0.99 1.00 1.00 1.03 1.14 1.18 1.14 1.18 1.32 1.49 1.61 1.70 1.72 1.88 2.17 2.41 2.44 2.36 2.34 2.51 2.58 2.28 2.24 2.28 2.29 2.24 2.16
1.05 1.09 1.09 1.08 1.08 1.09 1.10 1.10 1.09 1.03 0.98 0.98 0.95 0.95 0.97 1.03 1.07 1.09 1.16 1.23 1.30 1.41 1.54 1.61 1.72 1.99 2.31 2.52 2.42 2.26 2.34 2.51 2.54 2.39 2.34 2.40 2.57 2.64
1.16 1.13 1.10 1.10 1.09 1.11 1.12 1.10 1.06 0.99 0.93 0.92 0.92 0.92 0.95 0.99 0.99 1.03 1.08 1.15 1.23 1.30 1.40 1.56 1.68 1.86 2.13 2.33 2.44 2.34 2.23 2.27 2.37 2.41 2.58 2.43 2.07 1.89